Weather History for Mobridge, SD

Change the Weather History Date:

Saturday, March 29, 2014

  Actual Average Record
Temperature  
Mean Temperature 42 °F 38 °F  
Max Temperature 64 °F 49 °F 76 °F (1967)
Min Temperature 20 °F 26 °F -5 °F (1964)
Degree Days  
Heating Degree Days 23 27  
Month to date heating degree days 1081 974  
Since 1 July heating degree days 7621 6949  
Cooling Degree Days 0 0  
Month to date cooling degree days 0 0  
Year to date cooling degree days 0 0  
Moisture  
Dew Point 25 °F    
Average Humidity 61    
Maximum Humidity 92    
Minimum Humidity 29    
Precipitation  
Precipitation 0.00 in 0.03 in 0.96 in (1977)
Month to date precipitation 0.36 0.81  
Year to date precipitation 0.97 1.54  
Snow  
Snow 0.00 in - - ()
Month to date snowfall 5.6  
Since 1 July snowfall 37.0  
Snow Depth T in    
Sea Level Pressure  
Sea Level Pressure 29.92 in    
Wind  
Wind Speed 13 mph (SSE)    
Max Wind Speed 24 mph    
Max Gust Speed 28 mph    
Visibility 10 miles    
Events      
T = Trace of Precipitation, MM = Missing Value Source: NWS Daily Summary

Daily Weather History Graph

Daily Weather History Graph

Search for Another Location

Airport:

Trip Planner

Search our weather history database for the weather conditions in past years. The results will help you decide how hot, cold, wet, or windy it might be!

Date:

Astronomy

Mar. 29, 2014 Rise Set
Actual Time 7:27 AM CDT 8:06 PM CDT
Civil Twilight 6:57 AM CDT 8:35 PM CDT
Nautical Twilight 6:22 AM CDT 9:11 PM CDT
Astronomical Twilight 5:45 AM CDT 9:48 PM CDT
Moon 6:40 AM CDT (3/29) 7:11 PM CDT (3/29)
Length of Visible Light 13h 38m
Length of Day
12h 38m
Waning Crescent, 2% of the Moon is Illuminated
Mar 29
Waning Crescent
Mar 30
New
Apr 7
First Quarter
Apr 15
Full
Apr 22
Last Quarter

Hourly Weather History & Observations

Time (CDT) Temp. Windchill Dew Point Humidity Pressure Visibility Wind Dir Wind Speed Gust Speed Precip Events Conditions
12:52 AM 24.1 °F 13.7 °F 18.0 °F 77% 30.19 in 10.0 mi SSE 10.4 mph - N/A   Clear
1:52 AM 21.0 °F 11.4 °F 17.1 °F 85% 30.19 in 10.0 mi SE 8.1 mph - N/A   Clear
2:52 AM 21.0 °F 10.6 °F 17.1 °F 85% 30.17 in 10.0 mi SSE 9.2 mph - N/A   Clear
3:52 AM 21.0 °F 9.3 °F 18.0 °F 88% 30.14 in 10.0 mi SE 11.5 mph - N/A   Clear
4:52 AM 19.9 °F 9.3 °F 17.1 °F 89% 30.12 in 10.0 mi SSE 9.2 mph - N/A   Clear
5:52 AM 21.0 °F 9.9 °F 19.0 °F 92% 30.10 in 10.0 mi SSE 10.4 mph - N/A   Clear
6:52 AM 21.0 °F 9.3 °F 19.0 °F 92% 30.07 in 10.0 mi SSE 11.5 mph - N/A   Clear
7:52 AM 21.9 °F 9.8 °F 19.0 °F 89% 30.06 in 10.0 mi SSE 12.7 mph - N/A   Clear
8:52 AM 26.1 °F 15.0 °F 21.9 °F 84% 30.04 in 10.0 mi SSE 12.7 mph - N/A   Clear
9:52 AM 30.0 °F 17.9 °F 24.1 °F 79% 29.99 in 10.0 mi SSE 18.4 mph - N/A   Clear
10:52 AM 37.9 °F 27.6 °F 27.0 °F 65% 29.96 in 10.0 mi SSE 20.7 mph - N/A   Clear
11:52 AM 43.0 °F 34.0 °F 27.0 °F 53% 29.92 in 10.0 mi SSE 21.9 mph - N/A   Clear
12:52 PM 46.9 °F - 28.0 °F 48% 29.90 in 10.0 mi SSE 17.3 mph - N/A   Clear
1:52 PM 52.0 °F - 28.9 °F 41% 29.86 in 10.0 mi South 18.4 mph - N/A   Clear
2:52 PM 55.9 °F - 28.9 °F 36% 29.81 in 10.0 mi South 20.7 mph - N/A   Clear
3:52 PM 59.0 °F - 28.9 °F 32% 29.78 in 10.0 mi South 17.3 mph - N/A   Clear
4:52 PM 61.0 °F - 28.9 °F 30% 29.74 in 10.0 mi South 13.8 mph - N/A   Clear
5:52 PM 63.0 °F - 30.0 °F 29% 29.71 in 10.0 mi South 12.7 mph - N/A   Clear
6:52 PM 59.0 °F - 30.0 °F 33% 29.71 in 10.0 mi SSE 8.1 mph - N/A   Clear
7:52 PM 54.0 °F - 33.1 °F 45% 29.71 in 10.0 mi SE 12.7 mph - N/A   Clear
8:52 PM 46.0 °F 41.4 °F 32.0 °F 58% 29.72 in 10.0 mi SE 9.2 mph - N/A   Clear
9:52 PM 41.0 °F 35.8 °F 30.9 °F 67% 29.71 in 10.0 mi SSE 8.1 mph - N/A   Clear
10:52 PM 39.0 °F 33.4 °F 30.9 °F 73% 29.69 in 10.0 mi SE 8.1 mph - N/A   Clear
11:52 PM 37.0 °F 34.5 °F 30.9 °F 79% 29.71 in 10.0 mi NNE 3.5 mph - N/A   Scattered Clouds